SQ5DCP-1 Weather Reports


Display with metric or nautical units.
time (UTC)temp
F
wind
direction
speed
MPH
gust
MPH
rain 1hr
in
rain 24hr
in
rain mn
in
humidity
%
barometer
mb
20210614181537 68 0.0 3.0 0.00 0.00 0.00 50 1018.5
20210614181037 68 0.0 1.0 0.00 0.00 0.00 49 1018.4
20210614180536 68 0.0 0.0 0.00 0.00 0.00 49 1018.4
20210614180036 68 315 0.0 1.0 0.00 0.00 0.00 48 1018.4
20210614175535 68 0.0 1.0 0.00 0.00 0.00 48 1018.4
20210614175035 69 0.0 0.0 0.00 0.00 0.00 48 1018.4
20210614174534 69 0.0 0.0 0.00 0.00 0.00 48 1018.4
20210614174034 69 315 0.0 1.0 0.00 0.00 0.00 48 1018.3
20210614173533 69 0.0 0.0 0.00 0.00 0.00 47 1018.4
20210614173033 69 0.0 0.0 0.00 0.00 0.00 47 1018.4
20210614172532 69 0.0 0.0 0.00 0.00 0.00 47 1018.4
20210614172032 69 0.0 0.0 0.00 0.00 0.00 47 1018.4
20210614171532 70 0.0 0.0 0.00 0.00 0.00 47 1018.5
20210614171031 70 0.0 0.0 0.00 0.00 0.00 47 1018.4
20210614170531 70 0.0 0.0 0.00 0.00 0.00 47 1018.5
20210614170030 70 0.0 0.0 0.00 0.00 0.00 47 1018.5
20210614165530 70 0.0 0.0 0.00 0.00 0.00 46 1018.5
20210614165029 70 270 0.0 1.0 0.00 0.00 0.00 46 1018.6
20210614164529 70 326 0.0 1.0 0.00 0.00 0.00 45 1018.6
20210614164028 71 297 0.0 1.0 0.00 0.00 0.00 46 1018.6
20210614163528 71 323 0.0 5.0 0.00 0.01 0.00 45 1018.6
20210614163028 72 330 0.0 1.0 0.00 0.01 0.00 44 1018.6
20210614162527 72 319 0.0 1.0 0.00 0.01 0.00 44 1018.6
20210614162027 73 314 0.0 5.0 0.00 0.02 0.00 44 1018.6
20210614161526 73 315 0.0 1.0 0.00 0.05 0.00 44 1018.6
20210614161056 73 279 0.0 3.0 0.00 0.09 0.00 44 1018.6
20210614160525 73 287 0.0 3.0 0.00 0.10 0.00 44 1018.6
20210614160025 73 253 0.0 3.0 0.00 0.11 0.00 43 1018.8
20210614155524 73 279 0.0 5.0 0.00 0.11 0.00 43 1018.7
20210614155024 73 332 0.0 1.0 0.00 0.11 0.00 42 1018.7
20210614154523 74 338 0.0 7.0 0.00 0.12 0.00 41 1018.8
20210614154023 73 207 0.0 3.0 0.00 0.13 0.00 42 1018.7
20210614153553 73 346 0.0 1.0 0.00 0.16 0.00 42 1018.8
20210614153052 73 0.0 0.0 0.00 0.16 0.00 42 1018.8
20210614152552 74 0.0 0.0 0.00 0.16 0.00 42 1018.8
20210614152051 73 0.0 0.0 0.00 0.16 0.00 43 1018.8
20210614151551 73 345 0.0 1.0 0.00 0.16 0.00 43 1018.8
20210614151020 73 330 0.0 1.0 0.00 0.16 0.00 42 1018.8
20210614150520 73 0.0 1.0 0.00 0.16 0.00 42 1018.8
20210614150019 73 3 0.0 1.0 0.00 0.16 0.00 43 1018.9
20210614145519 73 333 0.0 3.0 0.00 0.17 0.00 42 1018.9
20210614145049 74 340 0.0 1.0 0.00 0.17 0.00 42 1018.9
20210614144548 74 287 0.0 3.0 0.00 0.17 0.00 43 1018.9
20210614144048 74 315 0.0 5.0 0.00 0.17 0.00 43 1018.9
20210614143547 74 305 0.0 5.0 0.00 0.17 0.00 42 1019.0
20210614143047 74 0.0 1.0 0.00 0.17 0.00 42 1019.1
20210614142547 74 20 0.0 4.0 0.00 0.17 0.00 43 1019.1
20210614142046 73 307 0.0 3.0 0.00 0.17 0.00 43 1019.1
20210614141546 73 329 0.0 4.0 0.00 0.17 0.00 42 1019.1
20210614141015 73 338 0.0 3.0 0.00 0.17 0.00 44 1019.2
20210614140545 73 312 0.0 7.0 0.00 0.17 0.00 44 1019.2
20210614140044 73 275 0.0 7.0 0.00 0.17 0.00 44 1019.2
20210614135544 73 297 0.0 5.0 0.00 0.17 0.00 44 1019.3
20210614135043 73 270 0.0 7.0 0.00 0.17 0.00 44 1019.3
20210614134543 73 349 0.0 5.0 0.00 0.17 0.00 44 1019.4
20210614134043 73 338 0.0 3.0 0.00 0.17 0.00 44 1019.5
20210614133542 73 338 0.0 3.0 0.00 0.17 0.00 44 1019.5
20210614133042 72 0.0 1.0 0.00 0.17 0.00 46 1019.5
20210614132541 72 306 0.0 3.0 0.00 0.17 0.00 47 1019.5
20210614132041 71 308 0.0 1.0 0.00 0.17 0.00 46 1019.5
20210614131540 71 312 0.0 3.0 0.00 0.17 0.00 46 1019.5
20210614131040 71 326 0.0 1.0 0.00 0.17 0.00 47 1019.6
20210614130539 71 68 0.0 1.0 0.00 0.17 0.00 47 1019.5
20210614130039 71 292 0.0 5.0 0.00 0.17 0.00 47 1019.6
20210614125539 70 248 0.0 5.0 0.00 0.17 0.00 47 1019.5
20210614125038 71 311 0.0 3.0 0.00 0.17 0.00 47 1019.5
20210614124538 71 331 0.0 4.0 0.00 0.17 0.00 48 1019.4
20210614124037 70 324 0.0 7.0 0.00 0.17 0.00 49 1019.4
20210614123537 70 273 0.0 3.0 0.00 0.17 0.00 49 1019.4
20210614123036 70 30 0.0 3.0 0.00 0.17 0.00 48 1019.3
20210614122536 70 338 0.0 1.0 0.00 0.17 0.00 49 1019.3
20210614122036 69 282 1.0 7.0 0.00 0.17 0.00 49 1019.3
20210614121535 69 254 0.0 7.0 0.00 0.17 0.00 48 1019.3
20210614121035 69 293 0.0 3.0 0.00 0.17 0.00 48 1019.3
20210614120034 69 328 0.0 4.0 0.00 0.17 0.00 50 1019.4
20210614115533 68 21 0.0 3.0 0.00 0.17 0.00 51 1019.6
20210614115033 68 268 0.0 5.0 0.00 0.17 0.00 51 1019.6
20210614114533 68 305 0.0 7.0 0.00 0.17 0.00 50 1019.6
20210614114032 68 338 0.0 1.0 0.00 0.17 0.00 50 1019.6
20210614113532 67 306 0.0 7.0 0.00 0.17 0.00 52 1019.6
20210614113031 67 319 0.0 3.0 0.00 0.17 0.00 51 1019.7
20210614112531 67 338 0.0 3.0 0.00 0.17 0.00 51 1019.8
20210614112031 67 239 0.0 5.0 0.00 0.17 0.00 50 1019.8
20210614111530 67 274 1.0 7.0 0.00 0.17 0.00 51 1019.8
20210614111030 67 270 0.0 1.0 0.00 0.17 0.00 53 1019.8
20210614110559 66 0.0 1.0 0.00 0.17 0.00 52 1020.0
20210614110029 66 338 0.0 1.0 0.00 0.17 0.00 51 1020.0
20210614105528 66 293 0.0 4.0 0.00 0.17 0.00 52 1020.1
20210614105028 66 319 0.0 5.0 0.00 0.17 0.00 52 1020.1
20210614104527 66 335 0.0 1.0 0.00 0.17 0.00 52 1020.1
20210614104027 66 293 0.0 1.0 0.00 0.17 0.00 52 1020.1
20210614103526 66 326 0.0 1.0 0.00 0.17 0.00 52 1020.1
20210614103026 66 118 0.0 3.0 0.00 0.17 0.00 54 1020.1
20210614102525 66 347 0.0 3.0 0.00 0.17 0.00 54 1020.1
20210614102025 65 322 0.0 1.0 0.00 0.17 0.00 53 1020.2
20210614101525 66 340 0.0 5.0 0.00 0.17 0.00 52 1020.3
20210614101024 66 338 1.0 7.0 0.00 0.17 0.00 53 1020.3
20210614100554 66 315 0.0 4.0 0.00 0.17 0.00 51 1020.3
20210614100053 66 332 0.0 4.0 0.00 0.17 0.00 53 1020.3
20210614095523 65 262 0.0 3.0 0.00 0.17 0.00 55 1020.2
20210614095022 65 297 0.0 3.0 0.00 0.17 0.00 54 1020.3
20210614094522 66 296 1.0 4.0 0.00 0.17 0.00 53 1020.3
20210614094021 67 296 0.0 3.0 0.00 0.17 0.00 53 1020.3
20210614093521 67 32 0.0 1.0 0.00 0.17 0.00 51 1020.3
20210614093021 67 288 0.0 3.0 0.00 0.17 0.00 54 1020.4
20210614092520 66 315 0.0 3.0 0.00 0.17 0.00 55 1020.4
20210614092020 65 300 0.0 4.0 0.00 0.17 0.00 55 1020.5
20210614091549 65 15 0.0 3.0 0.00 0.17 0.00 54 1020.4
20210614091049 66 327 0.0 3.0 0.00 0.17 0.00 54 1020.3
20210614090548 66 300 0.0 5.0 0.00 0.17 0.00 53 1020.3
20210614090048 67 301 0.0 4.0 0.00 0.17 0.00 53 1020.3
20210614085548 66 337 0.0 4.0 0.00 0.17 0.00 54 1020.3
20210614085047 66 342 0.0 3.0 0.00 0.17 0.00 54 1020.4
20210614084547 66 330 0.0 1.0 0.00 0.17 0.00 54 1020.4
20210614084046 65 321 0.0 4.0 0.00 0.17 0.00 55 1020.3
20210614083546 65 313 0.0 7.0 0.00 0.17 0.00 55 1020.3
20210614083045 65 329 0.0 7.0 0.00 0.17 0.00 56 1020.4
20210614082545 64 316 1.0 7.0 0.00 0.17 0.00 56 1020.4
20210614082044 64 0 1.0 7.0 0.00 0.17 0.00 58 1020.4
20210614081544 63 338 0.0 7.0 0.00 0.17 0.00 59 1020.3
20210614081049 63 281 1.0 5.0 0.00 0.17 0.00 60 1020.3
20210614080543 63 338 0.0 1.0 0.00 0.17 0.00 61 1020.4
20210614080043 62 338 0.0 1.0 0.00 0.17 0.00 61 1020.4
20210614075542 62 318 1.0 7.0 0.00 0.17 0.00 62 1020.4
20210614075042 61 301 0.0 3.0 0.00 0.17 0.00 64 1020.3
20210614074541 61 244 1.0 4.0 0.00 0.17 0.00 65 1020.3
20210614074041 61 328 1.0 4.0 0.00 0.17 0.00 66 1020.3
20210614073540 60 307 1.0 4.0 0.00 0.17 0.00 66 1020.3
20210614073040 60 325 2.0 8.0 0.00 0.18 0.00 66 1020.4
20210614072540 60 307 1.0 7.0 0.00 0.18 0.00 67 1020.4
20210614072039 59 304 0.0 8.0 0.00 0.18 0.00 67 1020.4
20210614071539 59 326 0.0 3.0 0.00 0.18 0.00 68 1020.5
20210614071038 59 353 0.0 3.0 0.00 0.18 0.00 69 1020.5
20210614070538 59 310 1.0 5.0 0.00 0.18 0.00 72 1020.5
20210614070037 59 302 0.0 4.0 0.00 0.18 0.00 73 1020.5
20210614065537 58 294 0.0 3.0 0.00 0.18 0.00 73 1020.6
20210614065036 58 280 0.0 5.0 0.00 0.18 0.00 74 1020.5
20210614064536 58 314 1.0 7.0 0.00 0.18 0.00 75 1020.6
20210614064036 57 293 0.0 1.0 0.00 0.18 0.00 76 1020.5
20210614063535 57 359 0.0 3.0 0.00 0.18 0.00 76 1020.5
20210614063035 57 331 0.0 4.0 0.00 0.18 0.00 77 1020.5
20210614062534 56 319 1.0 7.0 0.00 0.18 0.00 77 1020.4
20210614062034 56 310 0.0 1.0 0.00 0.18 0.00 78 1020.4
20210614061533 56 345 0.0 4.0 0.00 0.18 0.00 79 1020.4
20210614061033 56 18 0.0 5.0 0.00 0.18 0.00 80 1020.5
20210614060533 55 304 1.0 5.0 0.00 0.18 0.00 80 1020.5
20210614060032 55 304 0.0 4.0 0.00 0.18 0.00 81 1020.4
20210614055532 55 285 0.0 3.0 0.00 0.18 0.00 81 1020.5
20210614055031 55 322 0.0 3.0 0.00 0.18 0.00 81 1020.4
20210614054531 54 308 0.0 1.0 0.00 0.18 0.00 82 1020.4
20210614054030 54 338 0.0 1.0 0.00 0.18 0.00 82 1020.4
20210614053530 54 338 0.0 1.0 0.00 0.18 0.00 82 1020.4
20210614053029 54 334 1.0 7.0 0.00 0.18 0.00 82 1020.3
20210614052529 54 284 1.0 5.0 0.00 0.18 0.00 83 1020.4
20210614052028 53 334 0.0 1.0 0.00 0.18 0.00 83 1020.2
20210614051528 53 315 1.0 8.0 0.00 0.18 0.00 84 1020.3
20210614051028 53 311 0.0 3.0 0.00 0.18 0.00 84 1020.6
20210614050527 53 318 0.0 3.0 0.00 0.18 0.00 84 1020.6
20210614050027 52 304 1.0 8.0 0.00 0.18 0.00 84 1020.6
20210614045526 52 274 0.0 3.0 0.00 0.18 0.00 84 1020.6
20210614045026 52 310 1.0 10.0 0.00 0.18 0.00 85 1020.6
20210614044525 52 337 0.0 1.0 0.00 0.18 0.00 85 1020.6
20210614044025 52 308 1.0 4.0 0.00 0.18 0.00 85 1020.6
20210614043555 51 300 0.0 3.0 0.00 0.18 0.00 85 1020.5
20210614043054 51 298 1.0 5.0 0.00 0.18 0.00 85 1020.4
20210614042524 51 294 0.0 3.0 0.00 0.18 0.00 86 1020.4
20210614042023 51 293 0.0 4.0 0.00 0.18 0.00 86 1020.4
20210614041523 50 271 0.0 5.0 0.00 0.18 0.00 86 1020.4
20210614041022 50 304 3.0 8.0 0.00 0.18 0.00 86 1020.4
20210614040522 50 291 3.0 8.0 0.00 0.18 0.00 86 1020.4
20210614040022 50 292 3.0 10.0 0.00 0.18 0.00 86 1020.4
20210614035521 50 305 2.0 10.0 0.00 0.18 0.00 86 1020.4
20210614035051 50 274 2.0 7.0 0.00 0.18 0.00 85 1020.4
20210614034550 49 286 2.0 8.0 0.00 0.18 0.00 85 1020.4
20210614034050 49 275 1.0 8.0 0.00 0.18 0.00 85 1020.3
20210614033549 49 289 2.0 5.0 0.00 0.18 0.00 85 1020.4
20210614033049 49 286 3.0 8.0 0.00 0.18 0.00 85 1020.4
20210614032548 49 292 2.0 7.0 0.00 0.18 0.00 85 1020.3
20210614032018 49 288 1.0 7.0 0.00 0.18 0.00 85 1020.3
20210614031517 49 291 3.0 5.0 0.00 0.18 0.00 85 1020.4
20210614031017 49 296 2.0 5.0 0.00 0.18 0.00 85 1020.3
20210614030547 49 297 3.0 7.0 0.00 0.18 0.00 85 1020.1
20210614030046 49 270 3.0 7.0 0.00 0.18 0.00 85 1020.1
20210614025546 49 276 3.0 5.0 0.00 0.18 0.00 85 1020.2
20210614025045 49 285 3.0 8.0 0.00 0.18 0.00 85 1020.1
20210614024545 49 292 3.0 7.0 0.00 0.18 0.00 85 1020.1
20210614024044 49 285 1.0 8.0 0.00 0.18 0.00 85 1020.1
20210614023544 49 289 1.0 4.0 0.00 0.18 0.00 85 1020.0
20210614023044 49 286 1.0 5.0 0.00 0.18 0.00 85 1020.0
20210614022543 49 282 2.0 5.0 0.00 0.18 0.00 85 1020.1
20210614022043 49 271 2.0 4.0 0.00 0.18 0.00 85 1020.1
20210614021542 49 300 2.0 5.0 0.00 0.18 0.00 85 1020.0
20210614021042 49 271 2.0 7.0 0.00 0.18 0.00 85 1020.0
20210614020541 49 300 1.0 4.0 0.00 0.18 0.00 85 1020.0
20210614020041 50 293 0.0 3.0 0.00 0.18 0.00 86 1020.1
20210614015540 50 277 1.0 5.0 0.00 0.18 0.00 86 1020.0
20210614015040 50 291 3.0 7.0 0.00 0.18 0.00 86 1020.0
20210614014539 50 271 3.0 7.0 0.00 0.18 0.00 86 1019.9
20210614014039 50 284 3.0 7.0 0.00 0.18 0.00 86 1019.8
20210614013538 50 277 4.0 8.0 0.00 0.18 0.00 86 1019.9
20210614013038 50 275 3.0 8.0 0.00 0.18 0.00 86 1019.9
20210614012538 50 288 5.0 8.0 0.00 0.18 0.00 86 1019.8
20210614012037 50 293 5.0 10.0 0.00 0.18 0.00 86 1019.9
20210614011537 50 286 4.0 8.0 0.00 0.18 0.00 86 1019.9
20210614011036 50 291 0.0 3.0 0.00 0.18 0.00 86 1019.9
20210614010536 50 285 0.0 3.0 0.00 0.18 0.00 86 1019.8
20210614010035 50 280 0.0 1.0 0.00 0.18 0.00 86 1019.8
20210614005535 50 268 0.0 3.0 0.00 0.18 0.00 86 1019.8
20210614005035 50 284 0.0 3.0 0.00 0.18 0.00 86 1019.8
20210614004534 50 272 0.0 3.0 0.00 0.18 0.00 86 1019.8
20210614004034 50 295 0.0 1.0 0.00 0.18 0.00 85 1019.8
20210614003533 50 283 0.0 3.0 0.00 0.18 0.00 85 1019.7
20210614003033 51 293 0.0 1.0 0.00 0.18 0.00 85 1019.7
20210614002532 51 282 0.0 1.0 0.00 0.18 0.00 85 1019.7
20210614002032 51 293 0.0 1.0 0.00 0.18 0.00 85 1019.7
20210614001531 51 305 0.0 3.0 0.00 0.18 0.00 85 1019.7
20210614001031 51 316 0.0 1.0 0.00 0.18 0.00 85 1019.8
20210614000530 51 0.0 0.0 0.00 0.18 0.00 85 1019.7
20210614000030 51 0.0 0.0 0.00 0.18 0.00 85 1019.7
20210613235530 51 272 0.0 4.0 0.00 0.18 0.00 85 1019.7
20210613235029 51 281 0.0 1.0 0.00 0.18 0.00 85 1019.7
20210613234529 51 293 0.0 3.0 0.00 0.18 0.00 85 1019.7
20210613234028 51 294 0.0 3.0 0.00 0.18 0.00 85 1019.7
20210613233528 51 273 0.0 1.0 0.00 0.18 0.00 85 1019.6
20210613233027 52 266 0.0 3.0 0.00 0.18 0.00 85 1019.7
20210613232527 52 0.0 0.0 0.00 0.18 0.00 85 1019.6
20210613232026 52 0.0 0.0 0.00 0.18 0.00 85 1019.6
20210613231526 52 0.0 1.0 0.00 0.18 0.00 84 1019.6
20210613231055 52 270 0.0 1.0 0.00 0.18 0.00 84 1019.6
20210613230555 52 255 0.0 4.0 0.00 0.18 0.00 84 1019.6
20210613230024 52 284 1.0 3.0 0.00 0.18 0.00 84 1019.6
20210613225524 52 259 1.0 5.0 0.00 0.18 0.00 84 1019.6
20210613225024 52 286 1.0 4.0 0.00 0.18 0.00 84 1019.5
20210613224523 52 279 0.0 3.0 0.00 0.18 0.00 84 1019.5
20210613224023 52 272 0.0 3.0 0.00 0.18 0.00 84 1019.5
20210613223522 52 270 0.0 4.0 0.00 0.18 0.00 84 1019.5
20210613223022 52 270 0.0 3.0 0.00 0.18 0.00 84 1019.4
20210613222521 52 312 0.0 1.0 0.00 0.18 0.00 84 1019.4
20210613222051 52 0.0 0.0 0.00 0.18 0.00 84 1019.4
20210613221551 52 0.0 1.0 0.00 0.18 0.00 84 1019.4
20210613221050 52 270 0.0 1.0 0.00 0.18 0.00 84 1019.4
20210613220550 53 0.0 0.0 0.00 0.18 0.00 84 1019.4
20210613220049 53 285 0.0 1.0 0.00 0.18 0.00 84 1019.3
20210613215519 53 293 0.0 1.0 0.00 0.18 0.18 84 1019.3
20210613215018 53 288 0.0 1.0 0.00 0.18 0.18 84 1019.4
20210613214518 53 300 0.0 1.0 0.00 0.18 0.18 84 1019.3
20210613214047 53 270 0.0 1.0 0.00 0.18 0.18 84 1019.3
20210613213547 53 299 0.0 1.0 0.00 0.18 0.18 84 1019.2
20210613213046 53 278 0.0 1.0 0.00 0.18 0.18 84 1019.1
20210613212546 53 284 1.0 5.0 0.00 0.18 0.18 84 1018.9
20210613212046 53 320 0.0 5.0 0.00 0.18 0.18 84 1018.8
20210613211545 53 293 1.0 5.0 0.00 0.18 0.18 84 1018.7
20210613211045 53 292 1.0 5.0 0.00 0.18 0.18 84 1018.6
20210613210544 53 313 0.0 5.0 0.00 0.18 0.18 84 1018.6
20210613210044 53 282 2.0 5.0 0.00 0.18 0.18 84 1018.6
20210613205543 53 282 1.0 4.0 0.00 0.18 0.18 84 1018.6
20210613205043 53 288 0.0 1.0 0.00 0.18 0.18 84 1018.6
20210613204542 52 266 1.0 8.0 0.00 0.18 0.18 84 1018.5
20210613204042 52 286 2.0 8.0 0.00 0.18 0.18 84 1018.5
20210613203541 52 279 2.0 7.0 0.00 0.18 0.18 84 1018.5
20210613203041 52 0.0 0.0 0.00 0.18 0.18 84 1018.5
20210613202541 52 254 0.0 3.0 0.00 0.18 0.18 84 1018.5
20210613202040 52 0.0 0.0 0.00 0.19 0.18 84 1018.4
20210613201540 52 0.0 0.0 0.00 0.19 0.18 84 1018.4
20210613201039 52 0.0 0.0 0.00 0.20 0.18 84 1018.4
20210613200539 53 293 0.0 1.0 0.00 0.20 0.18 84 1018.3
20210613200038 53 304 0.0 1.0 0.00 0.21 0.18 84 1018.3
20210613195538 53 303 0.0 3.0 0.00 0.21 0.18 84 1018.2
20210613195037 53 308 0.0 1.0 0.00 0.21 0.18 84 1018.3
20210613194537 53 285 0.0 3.0 0.00 0.21 0.18 83 1018.3
20210613194036 53 256 0.0 3.0 0.00 0.21 0.18 83 1018.2
20210613193536 53 0.0 0.0 0.00 0.22 0.18 83 1018.3
20210613193036 53 0.0 0.0 0.00 0.23 0.18 83 1018.2
20210613192535 53 270 0.0 3.0 0.00 0.24 0.18 83 1018.2
20210613192035 53 297 0.0 1.0 0.00 0.24 0.18 83 1018.1
20210613191534 54 273 0.0 1.0 0.00 0.25 0.18 83 1018.0
20210613191034 54 270 0.0 1.0 0.00 0.26 0.18 83 1017.9
20210613190533 54 270 0.0 3.0 0.00 0.27 0.18 83 1017.9
20210613190033 54 293 0.0 1.0 0.00 0.28 0.18 83 1017.7
20210613185532 54 0.0 0.0 0.00 0.29 0.18 83 1017.6
20210613185032 54 0.0 0.0 0.00 0.30 0.18 83 1017.5
20210613184601 54 298 0.0 1.0 0.00 0.33 0.18 83 1017.7
20210613184031 54 0.0 0.0 0.00 0.46 0.18 84 1017.9
20210613183530 55 0.0 0.0 0.00 0.49 0.18 84 1017.8
20210613183030 55 0.0 0.0 0.00 0.51 0.18 84 1017.7
20210613182530 55 0.0 0.0 0.00 0.53 0.18 84 1017.6
20210613182029 54 250 0.0 4.0 0.00 0.55 0.18 84 1017.5